Weather History for Fayetteville, AR

Change the Weather History Date:

Tuesday, February 5, 2013

  Actual Average Record
Temperature  
Mean Temperature 46 °F 37 °F  
Max Temperature 65 °F 49 °F 74 °F (1963)
Min Temperature 26 °F 26 °F 4 °F (1985)
Degree Days  
Heating Degree Days 19 28  
Month to date heating degree days 120 140  
Since 1 July heating degree days 2453 2734  
Moisture  
Dew Point 33 °F    
Average Humidity 67    
Maximum Humidity 100    
Minimum Humidity 34    
Precipitation  
Precipitation 0.00 in 0.09 in 0.98 in (1957)
Month to date precipitation 0.06 0.44  
Year to date precipitation 3.09 3.28  
Sea Level Pressure  
Sea Level Pressure 30.00 in    
Wind  
Wind Speed 3 mph (West)    
Max Wind Speed 21 mph    
Max Gust Speed 22 mph    
Visibility 6 miles    
Events Fog    
T = Trace of Precipitation, MM = Missing Value Source: NWS Daily Summary

Daily Weather History Graph

Daily Weather History Graph

Search for Another Location

Airport:

Trip Planner

Search our weather history database for the weather conditions in past years. The results will help you decide how hot, cold, wet, or windy it might be!

Date:

Astronomy

Feb. 05, 2013 Rise Set
Actual Time 7:13 AM CST 5:48 PM CST
Civil Twilight 6:47 AM CST 6:14 PM CST
Nautical Twilight 6:16 AM CST 6:45 PM CST
Astronomical Twilight 5:46 AM CST 7:15 PM CST
Moon 2:53 AM CST (2/5) 1:09 PM CST (2/5)
Length of Visible Light 11h 27m
Length of Day
10h 34m
Waning Crescent, 26% of the Moon is Illuminated
Feb 5
Waning Crescent
Feb 10
New
Feb 17
First Quarter
Feb 25
Full
Mar 4
Last Quarter

Hourly Weather History & Observations

Time (CST) Temp. Windchill Dew Point Humidity Pressure Visibility Wind Dir Wind Speed Gust Speed Precip Events Conditions
12:03 AM 33.8 °F - 32.0 °F 93% 29.95 in 1.2 mi Calm Calm - N/A   Clear
12:11 AM 33.8 °F - 33.8 °F 100% 29.95 in 0.5 mi Calm Calm - N/A Fog Fog
12:28 AM 33.8 °F - 32.0 °F 93% 29.95 in 1.2 mi Calm Calm - N/A   Partly Cloudy
12:38 AM 33.8 °F - 33.8 °F 100% 29.96 in 0.8 mi Calm Calm - N/A   Mist
12:53 AM 30.0 °F - 30.0 °F 100% 29.96 in 0.5 mi Calm Calm - N/A Fog Light Freezing Fog
1:43 AM 28.4 °F - 28.4 °F 100% 29.96 in 3.0 mi Calm Calm - N/A   Overcast
1:53 AM 30.0 °F - 30.0 °F 100% 29.96 in 3.0 mi Calm Calm - N/A   Overcast
1:55 AM 30.2 °F - 30.2 °F 100% 29.96 in 1.8 mi Calm Calm - N/A   Overcast
2:04 AM 30.2 °F - 30.2 °F 100% 29.96 in 0.5 mi Calm Calm - N/A Fog Light Freezing Fog
2:53 AM 30.0 °F - 30.0 °F 100% 29.94 in 0.2 mi Calm Calm - N/A Fog Light Freezing Fog
3:53 AM 30.0 °F - 30.0 °F 100% 29.94 in 0.2 mi Calm Calm - N/A Fog Light Freezing Fog
4:53 AM 30.0 °F - 30.0 °F 100% 29.95 in 0.2 mi Calm Calm - N/A Fog Light Freezing Fog
5:53 AM 28.0 °F - 27.0 °F 96% 29.98 in 0.5 mi Calm Calm - N/A Fog Light Freezing Fog
6:25 AM 26.6 °F - 26.6 °F 100% 29.97 in 1.0 mi Calm Calm - N/A   Clear
6:53 AM 28.0 °F - 27.0 °F 96% 30.00 in 7.0 mi Calm Calm - N/A   Clear
7:53 AM 28.0 °F - 28.0 °F 100% 30.01 in 9.0 mi Calm Calm - N/A   Clear
8:53 AM 32.0 °F - 32.0 °F 100% 30.03 in 10.0 mi Calm Calm - N/A   Clear
9:53 AM 46.0 °F - 43.0 °F 89% 30.03 in 10.0 mi Calm Calm - N/A   Clear
10:53 AM 59.0 °F - 48.0 °F 67% 30.03 in 10.0 mi SW 6.9 mph - N/A   Clear
11:53 AM 61.0 °F - 46.0 °F 58% 30.03 in 10.0 mi West 6.9 mph - N/A   Clear
12:53 PM 63.0 °F - 37.9 °F 40% 30.01 in 10.0 mi West 9.2 mph - N/A   Clear
1:53 PM 63.0 °F - 37.9 °F 40% 29.99 in 10.0 mi West 5.8 mph - N/A   Clear
2:53 PM 64.0 °F - 36.0 °F 35% 29.98 in 10.0 mi WNW 5.8 mph 16.1 mph N/A   Clear
3:53 PM 64.0 °F - 35.1 °F 34% 29.98 in 10.0 mi West 6.9 mph - N/A   Clear
4:53 PM 63.0 °F - 35.1 °F 35% 29.99 in 10.0 mi West 9.2 mph - N/A   Clear
5:53 PM 52.0 °F - 33.1 °F 49% 30.02 in 10.0 mi NNW 8.1 mph - N/A   Clear
6:53 PM 43.0 °F - 34.0 °F 71% 30.04 in 10.0 mi Calm Calm - N/A   Clear
7:53 PM 41.0 °F - 33.1 °F 73% 30.06 in 10.0 mi Calm Calm - N/A   Clear
8:53 PM 41.0 °F - 33.1 °F 73% 30.07 in 10.0 mi Calm Calm - N/A   Clear
9:53 PM 37.0 °F - 32.0 °F 82% 30.08 in 10.0 mi Calm Calm - N/A   Clear
10:53 PM 34.0 °F 31.0 °F 30.9 °F 89% 30.07 in 10.0 mi SSW 3.5 mph - N/A   Clear
11:53 PM 32.0 °F - 28.9 °F 88% 30.08 in 10.0 mi Calm Calm - N/A   Clear